Middleton, WI

7:37 PM CDT on May 24, 2018 (GMT -0500)
Middleton

Weather History for KC29 - January, 2014

Change the Weather History Date:

Tuesday, January 21, 2014

  Actual Average (KMSN) Record (KMSN)
Temperature  
Mean Temperature 1 °F -  
Max Temperature 6 °F 29 °F 52 °F (1964)
Min Temperature -4 °F 13 °F -29 °F (1888)
Degree Days  
Heating Degree Days 64    
Moisture  
Dew Point -10 °F    
Average Humidity 59    
Maximum Humidity 74    
Minimum Humidity 45    
Precipitation  
Precipitation 0.00 in - - ()
Sea Level Pressure  
Sea Level Pressure 30.25 in    
Wind  
Wind Speed 9 mph (NNW)    
Max Wind Speed 17 mph    
Max Gust Speed 24 mph    
Visibility 10 miles    
Events      
Averages and records for this station are not official NWS values.
T = Trace of Precipitation, MM = Missing Value Source: NWS Daily Summary

Daily Weather History Graph

Daily Weather History Graph

Search for Another Location

Airport or City:

Astronomy

Jan. 21, 2014 Rise Set
Actual Time 7:23 AM CST 4:56 PM CST
Civil Twilight 6:52 AM CST 5:27 PM CST
Nautical Twilight 6:17 AM CST 6:01 PM CST
Astronomical Twilight 5:43 AM CST 6:35 PM CST
Moon 10:39 PM CST (1/21) 9:43 AM CST (1/21)
Length of Visible Light 10h 34m
Length of Day
9h 32m
Waning Gibbous, 74% of the Moon is Illuminated
Jan 21
Waning Gibbous
Jan 23
Last Quarter
Jan 30
New
Feb 6
First Quarter
Feb 14
Full

Hourly Weather History & Observations

Time (CST) Temp. Windchill Dew Point Humidity Pressure Visibility Wind Dir Wind Speed Gust Speed Precip Events Conditions
12:15 AM 6.8 °F -10.7 °F -5.6 °F 57% 30.21 in 10.0 mi North 15.0 mph 23.0 mph N/A   Mostly Cloudy
12:35 AM 5.9 °F -13.0 °F -6.5 °F 57% 30.22 in 10.0 mi NNE 17.3 mph 24.2 mph N/A   Mostly Cloudy
12:55 AM 5.4 °F -11.8 °F -6.3 °F 59% 30.23 in 10.0 mi North 13.8 mph - N/A   Scattered Clouds
1:15 AM 5.0 °F -12.3 °F -7.6 °F 56% 30.23 in 10.0 mi North 13.8 mph - N/A   Clear
1:35 AM 4.8 °F -11.8 °F -7.8 °F 56% 30.24 in 10.0 mi North 12.7 mph - N/A   Clear
1:55 AM 4.1 °F -11.1 °F -6.9 °F 60% 30.25 in 10.0 mi North 10.4 mph - N/A   Clear
2:15 AM 3.6 °F -14.8 °F -7.6 °F 60% 30.26 in 10.0 mi North 15.0 mph 23.0 mph N/A   Clear
2:35 AM 2.5 °F -16.2 °F -8.5 °F 60% 30.27 in 10.0 mi North 15.0 mph - N/A   Clear
2:55 AM 1.9 °F -15.5 °F -8.7 °F 61% 30.28 in 10.0 mi NNW 12.7 mph - N/A   Clear
3:15 AM 1.4 °F -16.1 °F -8.9 °F 62% 30.28 in 10.0 mi NNW 12.7 mph - N/A   Clear
3:35 AM 1.0 °F -15.8 °F -9.4 °F 62% 30.29 in 10.0 mi NNW 11.5 mph - N/A   Clear
3:55 AM 0.1 °F -16.9 °F -9.6 °F 64% 30.29 in 10.0 mi NNW 11.5 mph - N/A   Clear
4:15 AM -0.4 °F -17.6 °F -9.9 °F 64% 30.30 in 10.0 mi NNW 11.5 mph - N/A   Clear
4:35 AM -0.4 °F -17.6 °F -9.8 °F 65% 30.31 in 10.0 mi NNW 11.5 mph - N/A   Clear
4:55 AM -1.1 °F -17.6 °F -10.3 °F 65% 30.31 in 10.0 mi NNW 10.4 mph - N/A   Clear
5:15 AM -1.3 °F -21.0 °F -10.3 °F 66% 30.31 in 10.0 mi NNW 15.0 mph - N/A   Clear
5:35 AM -1.7 °F -20.8 °F -10.3 °F 67% 30.32 in 10.0 mi NNW 13.8 mph 19.6 mph N/A   Clear
5:55 AM -2.2 °F -19.9 °F -10.8 °F 67% 30.31 in 10.0 mi NNW 11.5 mph - N/A   Clear
6:15 AM -3.3 °F -21.2 °F -11.7 °F 67% 30.32 in 10.0 mi NNW 11.5 mph - N/A   Clear
6:35 AM -3.5 °F -20.5 °F -11.6 °F 68% 30.32 in 10.0 mi NNW 10.4 mph - N/A   Clear
6:55 AM -3.1 °F -21.8 °F -11.2 °F 68% 30.32 in 10.0 mi NNW 12.7 mph - N/A   Clear
7:15 AM -3.3 °F -19.3 °F -11.6 °F 68% 30.33 in 10.0 mi NNW 9.2 mph - N/A   Clear
7:35 AM -4.0 °F -20.2 °F -12.3 °F 68% 30.33 in 10.0 mi NNW 9.2 mph - N/A   Clear
7:55 AM -4.0 °F -20.2 °F -12.5 °F 67% 30.34 in 10.0 mi NNW 9.2 mph - N/A   Clear
8:15 AM -3.6 °F -22.5 °F -12.6 °F 65% 30.33 in 10.0 mi NNW 12.7 mph - N/A   Clear
8:35 AM -3.1 °F -20.1 °F -12.3 °F 65% 30.33 in 10.0 mi NNW 10.4 mph - N/A   Clear
8:55 AM -3.1 °F -16.7 °F -12.3 °F 65% 30.33 in 10.0 mi NNW 6.9 mph - N/A   Clear
9:15 AM -2.2 °F -16.8 °F -12.3 °F 62% 30.33 in 10.0 mi NW 8.1 mph - N/A   Clear
9:35 AM -1.8 °F -15.2 °F -11.9 °F 62% 30.34 in 10.0 mi NW 6.9 mph - N/A   Clear
9:55 AM -1.3 °F -15.7 °F -12.1 °F 60% 30.33 in 10.0 mi NNW 8.1 mph - N/A   Clear
10:15 AM -0.4 °F -12.0 °F -11.2 °F 60% 30.33 in 10.0 mi NW 5.8 mph - N/A   Clear
10:35 AM 0.5 °F -9.3 °F -11.2 °F 58% 30.33 in 10.0 mi NW 4.6 mph - N/A   Clear
10:55 AM 1.0 °F -11.7 °F -11.2 °F 57% 30.32 in 10.0 mi NNW 6.9 mph - N/A   Clear
11:15 AM 1.9 °F -5.6 °F -11.2 °F 54% 30.32 in 10.0 mi NNW 3.5 mph - N/A   Clear
11:35 AM 2.3 °F -5.2 °F -11.0 °F 54% 30.31 in 10.0 mi NW 3.5 mph - N/A   Clear
11:55 AM 2.7 °F -4.8 °F -10.5 °F 54% 30.31 in 10.0 mi NNW 3.5 mph - N/A   Clear
12:15 PM 3.9 °F -8.2 °F -10.1 °F 52% 30.29 in 10.0 mi NNW 6.9 mph - N/A   Clear
12:35 PM 5.0 °F -8.1 °F -9.8 °F 51% 30.28 in 10.0 mi WNW 8.1 mph - N/A   Clear
12:55 PM 5.0 °F -6.9 °F -10.3 °F 49% 30.27 in 10.0 mi WNW 6.9 mph - N/A   Clear
1:15 PM 5.9 °F -3.0 °F -9.8 °F 49% 30.26 in 10.0 mi WNW 4.6 mph - N/A   Clear
1:35 PM 5.9 °F -5.8 °F -9.9 °F 48% 30.26 in 10.0 mi WNW 6.9 mph - N/A   Clear
1:55 PM 6.4 °F -6.3 °F -10.5 °F 46% 30.24 in 10.0 mi West 8.1 mph - N/A   Clear
2:15 PM 6.6 °F -3.7 °F -10.3 °F 46% 30.24 in 10.0 mi NW 5.8 mph - N/A   Clear
2:35 PM 6.8 °F -3.5 °F -10.5 °F 45% 30.24 in 10.0 mi NW 5.8 mph - N/A   Clear
2:55 PM 6.8 °F -3.5 °F -10.7 °F 45% 30.23 in 10.0 mi NW 5.8 mph - N/A   Clear
3:15 PM 5.9 °F -1.1 °F -9.6 °F 49% 30.23 in 10.0 mi North 3.5 mph - N/A   Clear
3:35 PM 5.2 °F -1.9 °F -10.3 °F 49% 30.22 in 10.0 mi North 3.5 mph - N/A   Clear
3:55 PM 4.8 °F - -10.7 °F 49% 30.22 in 10.0 mi Calm Calm - N/A   Clear
4:10 PM 4.1 °F - -9.8 °F 53% 30.21 in 10.0 mi Calm Calm - N/A   Clear
4:35 PM 5.0 °F - -11.9 °F 46% 30.21 in 10.0 mi Calm Calm - N/A   Clear
4:55 PM 4.5 °F -2.7 °F -11.9 °F 47% 30.22 in 10.0 mi WNW 3.5 mph - N/A   Clear
5:15 PM 4.1 °F -3.2 °F -9.4 °F 54% 30.21 in 10.0 mi West 3.5 mph - N/A   Clear
5:35 PM 4.1 °F - -10.1 °F 52% 30.20 in 10.0 mi Calm Calm - N/A   Clear
5:55 PM 3.2 °F - -10.3 °F 54% 30.20 in 10.0 mi Calm Calm - N/A   Clear
6:15 PM 2.1 °F - -10.5 °F 56% 30.20 in 10.0 mi Calm Calm - N/A   Clear
6:35 PM -0.2 °F - -9.6 °F 65% 30.19 in 10.0 mi Calm Calm - N/A   Clear
6:55 PM 1.0 °F - -9.6 °F 61% 30.19 in 10.0 mi Calm Calm - N/A   Clear
7:15 PM -0.6 °F - -9.4 °F 66% 30.18 in 10.0 mi Calm Calm - N/A   Clear
7:35 PM -1.7 °F - -10.1 °F 67% 30.17 in 10.0 mi Calm Calm - N/A   Clear
7:55 PM -3.1 °F - -9.6 °F 74% 30.17 in 10.0 mi Calm Calm - N/A   Scattered Clouds
8:15 PM -3.3 °F - -10.5 °F 71% 30.17 in 10.0 mi Calm Calm - N/A   Clear
8:35 PM -0.0 °F - -9.2 °F 65% 30.16 in 10.0 mi Calm Calm - N/A   Clear
8:55 PM -3.5 °F - -12.3 °F 66% 30.17 in 10.0 mi Calm Calm - N/A   Clear
9:15 PM -4.5 °F - -11.4 °F 72% 30.17 in 10.0 mi Calm Calm - N/A   Scattered Clouds
9:35 PM -3.1 °F -11.4 °F -10.8 °F 70% 30.17 in 10.0 mi West 3.5 mph - N/A   Overcast
9:55 PM -0.0 °F - -8.3 °F 68% 30.17 in 10.0 mi Calm Calm - N/A   Overcast
10:15 PM 1.0 °F - -8.3 °F 65% 30.15 in 10.0 mi Calm Calm - N/A   Overcast
10:35 PM 1.4 °F - -8.7 °F 63% 30.14 in 10.0 mi Calm Calm - N/A   Overcast
10:55 PM 2.7 °F -4.8 °F -9.6 °F 57% 30.14 in 10.0 mi WSW 3.5 mph - N/A   Overcast
11:15 PM 2.7 °F -4.8 °F -9.0 °F 58% 30.13 in 10.0 mi SSW 3.5 mph - N/A   Overcast
11:35 PM 2.3 °F - -8.5 °F 61% 30.12 in 10.0 mi Calm Calm - N/A   Overcast
11:55 PM 2.5 °F - -9.4 °F 58% 30.11 in 10.0 mi Calm Calm - N/A   Overcast